sat.trackr.live / text

‹ back to catalog

ONEWEB-0244

NORAD 48776 · 2021-045K

PAYLOAD ACTIVE UNKNOWN

§ Identity

Operator
Country
UK
Launch date
2021-05-28
Launch site
VOSTO
Launch vehicle
Mass (kg)
RCS (m²)

Purposes: comms

External: N2YO · Heavens-Above · Gunter

§ Orbital elements

Epoch: 2026-09-19T22:01:48.379584Z

Period
109.46 min
Inclination
87.8996°
Eccentricity
0.0002041
Mean motion
13.15551766 rev/d
Perigee alt
1,200.2 km
Apogee alt
1,203.3 km
Semi-major
7,579.9 km
B*
2.7396e-4
RAAN
240.3025°
Arg perigee
80.0388°
Mean anomaly
280.0973°
Rev number
25,742

§ Raw data

ONEWEB-02441 48776U 21045K   26262.91792106  .00000116  00000+0  27396-3 0  99942 48776  87.8996 240.3025 0002041  80.0388 280.0973 13.15551766257420

JSON: /api/v1/satellites/48776 · /tle

For live sub-satellite position, see the globe view (requires WebGL).

§ Visibility from observer

Set your observer location to see the next 7 days of passes ≥ 10°. The values pass through the URL so the page stays shareable.

No JS? Fill the form by hand. The geolocation button needs JavaScript.